Tracking 28323 objects as of 3-Dec-2023
HD Live streaming from Space Station
objects crossing your sky now

SL-12 R/B(2)

Track SL-12 R/B(2) now!


NORAD ID: 28704
Int'l Code: 2005-023H
Perigee: 35,598.6 km
Apogee: 35,688.8 km
Inclination: 11.9 °
Period: 1,428.4 minutes
Semi major axis: 42014 km
RCS: 5.0238 m2 (large)
Launch date: June 24, 2005
Source: Commonwealth of Independent States (former USSR) (CIS)
Launch site: TYURATAM MISSILE AND SPACE COMPLEX (TTMTR)

Note: This is a ROCKET BODY
Your satellite tracking list
Your tracking list is empty




NASA's NSSDC Master Catalog

Two Line Element Set (TLE):
1 28704U 05023H   23336.79717061  .00000095  00000-0  00000+0 0  9999
2 28704  11.9160  25.3730 0010739 313.0728 225.2184  1.00809334 67864
Source of the keplerian elements: AFSPC